Content
SEND FEEDBACK

Daily
Averages
Monthly
Summary
China

CHONGQING, CHINA


Home > Asia > China
Elevation: 1151 feet     Latitude: 29 31N     Longitude: 106 29E

WEATHER
 
SELECT A DAY
Number of Records: 134,733;   Date Range: 1/29/00 - 10/31/14
 
SHARE

PRINT THIS DATA

[ ← Previous Day ]
WEATHER ALMANAC - JUNE 21, 2013
[ Next Day → ]
[ °C ]   °F
Weather ElementAverageHighLow
Temperature85.3 °F93.2 °F (5:00 pm)75.2 °F (8:00 am)
Dewpoint74.1 °F77 °F (9:00 pm)71.6 °F (4:00 am)
Humidity69.2 %94 % (8:00 am)46 % (2:00 pm)
Barometer29.67 in29.74 in (11:00 am)29.59 in (1:00 am)
Wind Speed5.8 mph11.2 mph (6:00 am)
Weather ElementAverage
Visibility5.8 mi
Wind DirectionSSE (143.1 °)

Weather ElementTotal
Precipitation---
Cooling Degree Days19.2 (Base 65)
Growing Degree Days34.2 (Base 50)
Averaged from 27 records on June 21, 2013
WEATHER CONDITIONS BREAKOUT
WIND DIRECTION BREAKOUT
WEATHER BY HOUR - JUNE 21, 2013
[ °C ]   °F
Local TimeTemperatureDewpointHumidityBarometerVisibilityWind DirectionWind SpeedGust SpeedPrecipitationEventsConditions
1:00 AM84.2 °F73.4 °F70 %29.59 inWest (260°)4.5 mphClear
2:00 AM82.4 °F73.4 °F74 %29.59 inWest (260°)8.9 mphClear
3:00 AM82.4 °F73.4 °F74 %29.62 inWSW (250°)8.9 mphClear
4:00 AM80.6 °F71.6 °F74 %29.65 in6.2 miWSW (250°)8.9 mphPartly Cloudy
5:00 AM80.6 °F71.6 °F74 %29.65 in6.2 miWSW (240°)6.7 mphPartly Cloudy
6:00 AM77.0 °F73.4 °F89 %29.65 in5.0 miNW (310°)11.2 mphRain-ThunderstormLight Thunderstorms and Rain
7:00 AM77.0 °F73.4 °F89 %29.71 in6.2 miVariable2.2 mphRainLight Rain Showers
8:00 AM77.0 °F73.0 °F85 %29.66 in1.0 miCalmRainLight Rain Showers
8:00 AM75.2 °F73.4 °F94 %29.71 in6.2 miSE (140°)4.5 mphRainLight Rain Showers
9:00 AM77.0 °F73.4 °F89 %29.71 in6.2 miEast (90°)4.5 mphScattered Clouds
10:00 AM80.6 °F73.4 °F79 %29.71 in6.2 miNE (50°)4.5 mphScattered Clouds
11:00 AM86.0 °F76.0 °F66 %29.68 in6.0 miNE (40°)2.2 mphMist
11:00 AM86.0 °F75.2 °F70 %29.74 in6.2 miVariable2.2 mphMostly Cloudy
12:00 PM87.8 °F73.4 °F62 %29.71 in6.2 miVariable2.2 mphMostly Cloudy
1:00 PM89.6 °F73.4 °F59 %29.71 in6.2 miVariable4.5 mphMostly Cloudy
2:00 PM92.0 °F74.0 °F46 %29.62 in5.0 miNorth4.5 mphHaze
2:00 PM91.4 °F75.2 °F59 %29.68 in6.2 miSouth (180°)6.7 mphMostly Cloudy
3:00 PM91.4 °F75.2 °F59 %29.68 in6.2 miVariable2.2 mphMostly Cloudy
4:00 PM91.4 °F75.2 °F59 %29.65 in6.2 miVariable4.5 mphMostly Cloudy
5:00 PM93.2 °F75.2 °F56 %29.62 inNW (320°)6.7 mphClear
6:00 PM91.4 °F73.4 °F55 %29.62 inNW (310°)6.7 mphClear
7:00 PM89.6 °F75.2 °F62 %29.65 in6.2 miNW (310°)8.9 mphPartly Cloudy
8:00 PM90.0 °F74.0 °F52 %29.60 in6.0 miNorth6.7 mphClear
8:00 PM87.8 °F75.2 °F66 %29.65 inNW (310°)6.7 mphClear
9:00 PM87.8 °F77.0 °F70 %29.68 inNNE (20°)6.7 mphClear
10:00 PM87.8 °F75.2 °F66 %29.71 in6.2 miNorth (360°)11.2 mphScattered Clouds
11:00 PM86.0 °F75.2 °F70 %29.71 inNNE (20°)8.9 mphClear
Hourly data recorded from ZUCK, located miles away from Chongqing, China







STORIES FROM OUR PARTNERS